Time,TemperatureF,DewpointF,PressureIn,WindDirection,WindDirectionDegrees,WindSpeedMPH,WindSpeedGustMPH,Humidity,HourlyPrecipIn,Conditions,Clouds,dailyrainin,SoftwareType,DateUTC
2015-01-30 00:00:00,14.8,6.0,30.56,NW,315,0.0,-999.0,67,-99.99,,,0.00,weatherlink.com 1.10,2015-01-30 06:00:00,
2015-01-30 00:15:00,14.8,7.0,30.57,NW,309,0.0,-999.0,70,-99.99,,,0.00,weatherlink.com 1.10,2015-01-30 06:15:00,
2015-01-30 00:31:00,14.6,7.0,30.57,WNW,288,0.0,-999.0,71,-99.99,,,0.00,weatherlink.com 1.10,2015-01-30 06:31:00,
2015-01-30 00:46:00,14.3,7.0,30.57,WNW,288,0.0,-999.0,71,-99.99,,,0.00,weatherlink.com 1.10,2015-01-30 06:46:00,
2015-01-30 01:01:00,14.1,7.0,30.57,WNW,289,0.0,-999.0,72,-99.99,,,0.00,weatherlink.com 1.10,2015-01-30 07:01:00,
2015-01-30 01:16:00,13.8,6.0,30.57,NNW,328,0.0,-999.0,72,-99.99,,,0.00,weatherlink.com 1.10,2015-01-30 07:16:00,
2015-01-30 01:31:00,13.5,6.0,30.57,NW,326,0.0,-999.0,73,-99.99,,,0.00,weatherlink.com 1.10,2015-01-30 07:31:00,
2015-01-30 01:46:00,13.1,6.0,30.57,NW,326,0.0,-999.0,73,-99.99,,,0.00,weatherlink.com 1.10,2015-01-30 07:46:00,
2015-01-30 02:01:00,13.1,6.0,30.57,NNW,333,0.0,-999.0,74,-99.99,,,0.00,weatherlink.com 1.10,2015-01-30 08:01:00,
2015-01-30 02:16:00,12.9,6.0,30.57,North,355,0.0,-999.0,74,-99.99,,,0.00,weatherlink.com 1.10,2015-01-30 08:16:00,
2015-01-30 02:31:00,12.8,6.0,30.56,NNW,348,0.0,-999.0,74,-99.99,,,0.00,weatherlink.com 1.10,2015-01-30 08:31:00,
2015-01-30 02:46:00,12.4,6.0,30.56,NNW,348,0.0,-999.0,75,-99.99,,,0.00,weatherlink.com 1.10,2015-01-30 08:46:00,
2015-01-30 03:01:00,12.1,6.0,30.56,NNW,348,0.0,-999.0,75,-99.99,,,0.00,weatherlink.com 1.10,2015-01-30 09:01:00,
2015-01-30 03:16:00,12.1,6.0,30.56,NNW,348,0.0,-999.0,75,-99.99,,,0.00,weatherlink.com 1.10,2015-01-30 09:16:00,
2015-01-30 03:31:00,12.1,6.0,30.56,NNE,32,0.0,-999.0,76,-99.99,,,0.00,weatherlink.com 1.10,2015-01-30 09:31:00,
2015-01-30 03:46:00,12.1,6.0,30.55,NNW,338,0.0,-999.0,75,-99.99,,,0.00,weatherlink.com 1.10,2015-01-30 09:46:00,
2015-01-30 04:01:00,11.9,5.0,30.55,NNW,338,0.0,-999.0,75,-99.99,,,0.00,weatherlink.com 1.10,2015-01-30 10:01:00,
2015-01-30 04:16:00,11.9,6.0,30.55,North,358,0.0,-999.0,76,-99.99,,,0.00,weatherlink.com 1.10,2015-01-30 10:16:00,
2015-01-30 04:31:00,11.9,6.0,30.55,North,358,0.0,-999.0,76,-99.99,,,0.00,weatherlink.com 1.10,2015-01-30 10:31:00,
2015-01-30 04:46:00,12.1,6.0,30.54,North,358,0.0,-999.0,76,-99.99,,,0.00,weatherlink.com 1.10,2015-01-30 10:46:00,
2015-01-30 05:01:00,12.1,6.0,30.54,North,358,0.0,-999.0,76,-99.99,,,0.00,weatherlink.com 1.10,2015-01-30 11:01:00,
2015-01-30 05:16:00,12.1,6.0,30.54,North,358,0.0,-999.0,76,-99.99,,,0.00,weatherlink.com 1.10,2015-01-30 11:16:00,
2015-01-30 05:31:00,12.1,6.0,30.54,North,358,0.0,-999.0,76,-99.99,,,0.00,weatherlink.com 1.10,2015-01-30 11:31:00,
2015-01-30 05:46:00,12.1,6.0,30.54,North,358,0.0,-999.0,75,-99.99,,,0.00,weatherlink.com 1.10,2015-01-30 11:46:00,
2015-01-30 06:01:00,11.9,5.0,30.54,North,358,0.0,-999.0,75,-99.99,,,0.00,weatherlink.com 1.10,2015-01-30 12:01:00,
2015-01-30 06:16:00,11.4,5.0,30.53,North,358,0.0,-999.0,76,-99.99,,,0.00,weatherlink.com 1.10,2015-01-30 12:16:00,
2015-01-30 06:31:00,10.9,5.0,30.54,North,358,0.0,-999.0,77,-99.99,,,0.00,weatherlink.com 1.10,2015-01-30 12:31:00,